Location: Chacón
(10.5789°N, 66.9317°W)
Time: 20:20:29
(UTC+00:00)

Sakura Rocket - Pass Details

Date: 10 August 2024
Orbit: 475 x 1710 km, 28.7° (Epoch: 09 September)

Event Time Altitude Azimuth Distance (km) Brightness Sun altitude
Exits shadow 08:10:43 12° 327° (NNW) 2,750 6.3 -30.2°
Maximum altitude 08:16:15 27° 20° (NNE) 2,202 6.2 -29.0°
Drops below altitude 10° 08:23:41 10° 74° (ENE) 3,621 7.9 -27.3°
Sets 08:27:48 0° 85° (E) 4,765 8.7 -26.4°
